Colorado Springs, CO

8:27 AM MDT on June 24, 2017 (GMT -0600)
City Of Colorado Springs Municipal

Weather History for KCOS - May, 2013

Change the Weather History Date:

Thursday, May 23, 2013

  Actual Average Record
Temperature  
Mean Temperature 53 °F 58 °F  
Max Temperature 60 °F 71 °F 91 °F (1989)
Min Temperature 46 °F 45 °F 30 °F (1930)
Degree Days  
Heating Degree Days 12 7  
Month to date heating degree days 270 240  
Since 1 July heating degree days 6089 6162  
Cooling Degree Days 0 0  
Month to date cooling degree days 7 0  
Year to date cooling degree days 7 1  
Growing Degree Days 2 (Base 50)    
Moisture  
Dew Point 44 °F    
Average Humidity 79    
Maximum Humidity 100    
Minimum Humidity 57    
Precipitation  
Precipitation T in 0.07 in 1.13 in (1959)
Month to date precipitation 1.14 1.40  
Year to date precipitation 2.73 4.48  
Snow  
Snow 0.00 in 0.00 in T in (2015)
Month to date snowfall 1.8 0.7  
Since 1 July snowfall 29.6 37.7  
Snow Depth 0.00 in    
Sea Level Pressure  
Sea Level Pressure 30.08 in    
Wind  
Wind Speed 11 mph (SE)    
Max Wind Speed 25 mph    
Max Gust Speed 29 mph    
Visibility 8 miles    
Events Fog    
T = Trace of Precipitation, MM = Missing Value Source: NWS Daily Summary

Daily Weather History Graph

Daily Weather History Graph

Search for Another Location

Airport or City:

Trip Planner

Search our weather history database for the weather conditions in past years. The results will help you decide how hot, cold, wet, or windy it might be!

Date:

Astronomy

May. 23, 2013 Rise Set
Actual Time 5:40 AM MDT 8:11 PM MDT
Civil Twilight 5:09 AM MDT 8:42 PM MDT
Nautical Twilight 4:31 AM MDT 9:20 PM MDT
Astronomical Twilight 3:49 AM MDT 10:03 PM MDT
Moon 6:47 PM MDT (5/23) 4:25 AM MDT (5/23)
Length of Visible Light 15h 32m
Length of Day
14h 31m
Waxing Gibbous, 97% of the Moon is Illuminated
May 23
Waxing Gibbous
May 24
Full
May 31
Last Quarter
Jun 8
New
Jun 16
First Quarter

Hourly Weather History & Observations

Time (MDT) Temp. Windchill Dew Point Humidity Pressure Visibility Wind Dir Wind Speed Gust Speed Precip Events Conditions
12:54 AM 54.0 °F - 45.0 °F 72% 29.94 in 10.0 mi ENE 8.1 mph - 0.00 in   Mostly Cloudy
1:54 AM 52.0 °F - 43.0 °F 71% 29.95 in 10.0 mi ENE 4.6 mph - N/A   Scattered Clouds
2:54 AM 52.0 °F - 42.1 °F 69% 29.97 in 10.0 mi ENE 3.5 mph - N/A   Overcast
3:32 AM 51.8 °F - 42.8 °F 71% 30.17 in 10.0 mi East 8.1 mph - N/A   Overcast
3:43 AM 51.8 °F - 42.8 °F 71% 30.17 in 10.0 mi East 8.1 mph - N/A   Overcast
3:54 AM 50.0 °F - 42.1 °F 74% 29.98 in 10.0 mi East 9.2 mph - N/A   Overcast
4:54 AM 48.0 °F - 43.0 °F 83% 30.00 in 10.0 mi ENE 3.5 mph - N/A   Overcast
5:01 AM 48.2 °F - 42.8 °F 82% 30.19 in 10.0 mi East 3.5 mph - N/A   Overcast
5:52 AM 48.2 °F - 42.8 °F 82% 30.19 in 10.0 mi Calm Calm - N/A   Overcast
5:54 AM 48.0 °F - 43.0 °F 83% 30.01 in 10.0 mi Calm Calm - N/A   Overcast
6:13 AM 48.2 °F - 42.8 °F 82% 30.19 in 7.0 mi East 3.5 mph - N/A   Overcast
6:54 AM 48.0 °F - 43.0 °F 83% 30.02 in 10.0 mi SSE 5.8 mph - N/A   Overcast
7:39 AM 48.2 °F - 44.6 °F 87% 30.19 in 10.0 mi SSE 10.4 mph - N/A   Overcast
7:54 AM 46.9 °F - 44.1 °F 90% 30.03 in 7.0 mi SE 11.5 mph - 0.00 in   Light Drizzle
8:31 AM 46.4 °F 40.7 °F 44.6 °F 93% 30.19 in 3.0 mi SE 12.7 mph - 0.00 in   Light Drizzle
8:54 AM 46.9 °F - 45.0 °F 93% 30.05 in 2.5 mi SSE 11.5 mph - 0.00 in   Light Drizzle
9:25 AM 46.4 °F 40.4 °F 44.6 °F 93% 30.20 in 1.0 mi SSE 13.8 mph - 0.00 in   Light Drizzle
9:54 AM 46.9 °F - 45.0 °F 93% 30.05 in 0.2 mi SE 11.5 mph - 0.00 in Fog Drizzle
10:48 AM 46.4 °F 40.7 °F 46.4 °F 100% 30.19 in 2.0 mi SSE 12.7 mph - 0.00 in   Light Drizzle
10:54 AM 46.9 °F - 46.0 °F 97% 30.06 in 1.5 mi SSE 11.5 mph - 0.00 in   Light Drizzle
11:32 AM 48.2 °F - 46.4 °F 93% 30.18 in 2.0 mi SSE 11.5 mph - 0.00 in   Overcast
11:51 AM 48.2 °F - 46.4 °F 93% 30.18 in 4.0 mi SSE 11.5 mph - 0.00 in   Overcast
11:54 AM 48.0 °F - 46.0 °F 93% 30.09 in 4.0 mi SSE 13.8 mph - 0.00 in   Overcast
12:54 PM 48.9 °F - 45.0 °F 86% 30.06 in 10.0 mi SE 12.7 mph - N/A   Overcast
1:54 PM 52.0 °F - 44.1 °F 74% 30.05 in 10.0 mi SSE 11.5 mph - N/A   Overcast
2:54 PM 55.0 °F - 44.1 °F 67% 30.02 in 10.0 mi SSE 13.8 mph - N/A   Mostly Cloudy
3:06 PM 55.4 °F - 44.6 °F 67% 30.14 in 10.0 mi SSE 11.5 mph - N/A   Scattered Clouds
3:54 PM 57.9 °F - 44.1 °F 60% 30.01 in 10.0 mi SE 17.3 mph 24.2 mph N/A   Partly Cloudy
4:54 PM 57.9 °F - 43.0 °F 58% 30.01 in 10.0 mi SE 18.4 mph 23.0 mph N/A   Scattered Clouds
5:28 PM 57.2 °F - 42.8 °F 59% 30.12 in 9.0 mi SE 21.9 mph - N/A   Mostly Cloudy
5:54 PM 57.9 °F - 43.0 °F 58% 30.01 in 10.0 mi SSE 16.1 mph - N/A   Mostly Cloudy
6:54 PM 57.0 °F - 44.1 °F 62% 30.00 in 10.0 mi SSE 12.7 mph - N/A   Scattered Clouds
7:54 PM 55.9 °F - 44.1 °F 64% 30.01 in 10.0 mi SSW 5.8 mph - N/A   Scattered Clouds
8:54 PM 53.1 °F - 43.0 °F 69% 30.02 in 10.0 mi South 9.2 mph - N/A   Scattered Clouds
9:54 PM 52.0 °F - 44.1 °F 74% 30.06 in 10.0 mi SE 8.1 mph - N/A   Scattered Clouds
10:54 PM 54.0 °F - 46.0 °F 75% 30.06 in 10.0 mi SE 16.1 mph - N/A   Overcast
11:08 PM 53.6 °F - 46.4 °F 77% 30.16 in 10.0 mi SSE 18.4 mph - N/A   Overcast
11:18 PM 53.6 °F - 46.4 °F 77% 30.16 in 10.0 mi SSE 16.1 mph - N/A   Overcast
11:54 PM 52.0 °F - 48.0 °F 86% 30.06 in 10.0 mi SSE 12.7 mph 19.6 mph N/A   Overcast